TimeEDT,TemperatureF,Dew PointF,Humidity,Sea Level PressureIn,VisibilityMPH,Wind Direction,Wind SpeedMPH,Gust SpeedMPH,PrecipitationIn,Events,Conditions,WindDirDegrees,DateUTC
12:37 AM,73.4,71.6,94,30.12,10.0,ENE,3.5,-,0.00,,Overcast,60,2013-08-20 04:37:00
12:53 AM,73.0,71.1,93,30.11,8.0,NE,4.6,-,0.00,,Overcast,50,2013-08-20 04:53:00
1:28 AM,73.4,71.6,94,30.10,2.5,NE,3.5,-,N/A,,Overcast,40,2013-08-20 05:28:00
1:50 AM,73.4,71.6,94,30.10,1.5,Calm,Calm,-,N/A,,Overcast,0,2013-08-20 05:50:00
1:53 AM,73.0,71.1,93,30.09,1.2,Calm,Calm,-,N/A,,Overcast,0,2013-08-20 05:53:00
2:13 AM,73.4,71.6,94,30.10,0.8,NE,3.5,-,N/A,,Mist,50,2013-08-20 06:13:00
2:53 AM,73.0,72.0,96,30.09,0.5,ENE,3.5,-,N/A,Fog,Fog,70,2013-08-20 06:53:00
3:35 AM,73.4,71.6,94,30.09,1.0,NE,4.6,-,N/A,,Mist,40,2013-08-20 07:35:00
3:44 AM,73.4,71.6,94,30.10,0.5,NE,4.6,-,N/A,Fog,Fog,40,2013-08-20 07:44:00
3:53 AM,73.0,71.1,93,30.09,0.5,NE,5.8,-,N/A,Fog,Fog,40,2013-08-20 07:53:00
4:53 AM,73.0,71.1,93,30.09,1.0,NNE,4.6,-,N/A,,Mist,30,2013-08-20 08:53:00
5:06 AM,73.4,71.6,94,30.09,2.0,NNE,4.6,-,N/A,,Overcast,30,2013-08-20 09:06:00
5:26 AM,73.4,71.6,94,30.10,3.0,NE,5.8,-,N/A,,Overcast,50,2013-08-20 09:26:00
5:41 AM,73.4,71.6,94,30.10,2.5,NE,5.8,-,N/A,,Overcast,40,2013-08-20 09:41:00
5:53 AM,73.0,71.1,93,30.09,1.8,ENE,3.5,-,N/A,,Overcast,60,2013-08-20 09:53:00
6:03 AM,73.4,71.6,94,30.10,1.2,NE,4.6,-,N/A,,Overcast,40,2013-08-20 10:03:00
6:39 AM,73.4,71.6,94,30.11,0.8,Calm,Calm,-,N/A,,Mist,0,2013-08-20 10:39:00
6:53 AM,73.0,71.1,93,30.10,0.8,NE,3.5,-,N/A,,Mist,40,2013-08-20 10:53:00
7:53 AM,73.0,72.0,96,30.12,0.2,East,3.5,-,N/A,Fog,Fog,90,2013-08-20 11:53:00
8:53 AM,73.9,73.0,97,30.13,0.8,NE,4.6,-,N/A,,Overcast,50,2013-08-20 12:53:00
9:04 AM,73.4,73.4,100,30.14,1.2,Calm,Calm,-,N/A,,Overcast,0,2013-08-20 13:04:00
9:24 AM,73.4,73.4,100,30.15,2.0,NNE,3.5,-,N/A,,Overcast,30,2013-08-20 13:24:00
9:53 AM,75.0,73.0,94,30.14,5.0,ENE,5.8,-,N/A,,Overcast,60,2013-08-20 13:53:00
10:53 AM,77.0,73.0,88,30.17,9.0,ENE,4.6,-,N/A,,Overcast,70,2013-08-20 14:53:00
11:12 AM,78.8,73.4,83,30.17,10.0,NNE,3.5,-,N/A,,Overcast,30,2013-08-20 15:12:00
11:53 AM,80.1,73.9,81,30.17,10.0,ENE,4.6,-,N/A,,Overcast,60,2013-08-20 15:53:00
12:38 PM,80.6,73.4,79,30.18,10.0,SE,4.6,-,N/A,,Mostly Cloudy,140,2013-08-20 16:38:00
12:44 PM,82.4,75.2,79,30.18,10.0,SSE,5.8,-,N/A,,Scattered Clouds,150,2013-08-20 16:44:00
12:53 PM,82.0,73.9,76,30.17,10.0,SE,3.5,-,N/A,,Partly Cloudy,130,2013-08-20 16:53:00
1:53 PM,84.9,72.0,65,30.14,10.0,Calm,Calm,-,N/A,,Partly Cloudy,0,2013-08-20 17:53:00
2:53 PM,87.1,72.0,61,30.12,10.0,ESE,4.6,-,N/A,,Partly Cloudy,110,2013-08-20 18:53:00
3:53 PM,89.1,71.1,55,30.09,10.0,Calm,Calm,-,N/A,,Clear,0,2013-08-20 19:53:00
4:53 PM,82.9,73.0,72,30.10,10.0,North,10.4,-,N/A,,Mostly Cloudy,360,2013-08-20 20:53:00
5:11 PM,80.6,73.4,79,30.11,1.8,NW,8.1,-,0.11,Rain,Heavy Rain,320,2013-08-20 21:11:00
5:18 PM,78.8,73.4,83,30.14,1.2,NE,8.1,-,0.15,Rain,Heavy Rain,40,2013-08-20 21:18:00
5:25 PM,75.2,71.6,89,30.14,0.8,East,15.0,20.7,0.56,Rain,Heavy Rain,100,2013-08-20 21:25:00
5:31 PM,73.4,71.6,94,30.15,0.2,East,11.5,21.9,1.11,Fog-Rain,Heavy Rain,90,2013-08-20 21:31:00
5:40 PM,73.4,71.6,94,30.16,0.2,East,10.4,18.4,1.56,Fog-Rain,Heavy Rain,100,2013-08-20 21:40:00
5:53 PM,73.9,72.0,93,30.17,0.8,SSE,6.9,-,1.91,Rain,Heavy Rain,150,2013-08-20 21:53:00
6:12 PM,73.4,71.6,94,30.15,1.0,Calm,Calm,-,0.47,Rain,Heavy Rain,0,2013-08-20 22:12:00
6:28 PM,73.4,71.6,94,30.14,2.0,East,4.6,-,0.60,Rain,Rain,90,2013-08-20 22:28:00
6:36 PM,73.4,71.6,94,30.14,9.0,Calm,Calm,-,0.60,Rain,Light Rain,0,2013-08-20 22:36:00
6:53 PM,73.9,72.0,93,30.12,10.0,NE,3.5,-,0.60,,Overcast,40,2013-08-20 22:53:00
7:53 PM,75.0,72.0,90,30.13,10.0,Calm,Calm,-,N/A,,Clear,0,2013-08-20 23:53:00
8:53 PM,73.9,72.0,93,30.14,10.0,Calm,Calm,-,N/A,,Partly Cloudy,0,2013-08-21 00:53:00
9:53 PM,73.0,71.1,93,30.15,10.0,ESE,3.5,-,0.00,,Clear,120,2013-08-21 01:53:00
10:53 PM,73.0,71.1,93,30.17,10.0,Calm,Calm,-,N/A,,Clear,0,2013-08-21 02:53:00
11:53 PM,73.0,71.1,93,30.17,10.0,Calm,Calm,-,N/A,,Clear,0,2013-08-21 03:53:00